Location: Lombard
(41.8800°N, 88.0080°W)
Time: 13:20:37
(UTC-05:00)

DUCHIFAT 1 - Visible Passes

Search period start: 16 May 2022 00:00
Search period end: 26 May 2022 00:00
Orbit: 580 x 599 km, 98.0° (Epoch: 15 May)

Date Brightness Start Highest point End Pass type
(mag) Time Alt. Az. Time Alt. Az. Time Alt. Az.
16 May ? 02:44:39 10° NE 02:48:20 30° E 02:49:25 26° SE visible
16 May ? 04:20:27 10° NNW 04:23:39 22° WNW 04:25:58 14° WSW visible
17 May ? 02:52:25 10° NNE 02:56:16 37° E 02:57:30 30° SE visible
17 May ? 04:28:37 10° NNW 04:31:29 19° WNW 04:34:02 11° WSW visible
18 May ? 03:00:13 10° NNE 03:04:12 46° E 03:05:32 33° SSE visible
18 May ? 04:36:51 10° NNW 04:39:18 16° WNW 04:41:45 10° W visible
19 May ? 03:08:02 10° NNE 03:12:06 57° E 03:13:35 35° SSE visible
19 May ? 04:45:13 10° NW 04:47:07 13° WNW 04:49:00 10° W visible
20 May ? 03:15:53 10° NNE 03:20:00 71° E 03:21:36 36° S visible
21 May ? 03:23:44 10° NNE 03:27:53 87° ESE 03:29:37 34° SSW visible
22 May ? 03:31:36 10° N 03:35:44 76° WNW 03:37:37 31° SSW visible
23 May ? 02:06:44 10° ENE 02:07:42 11° E 02:08:39 10° ESE visible
23 May ? 03:39:30 10° N 03:43:34 62° WNW 03:45:37 28° SW visible
24 May ? 02:13:38 10° ENE 02:15:38 13° E 02:17:04 11° ESE visible
24 May ? 03:47:23 10° N 03:51:23 50° WNW 03:53:36 24° SW visible
25 May ? 02:20:57 10° NE 02:23:32 16° E 02:25:03 14° ESE visible
25 May ? 03:55:19 10° N 03:59:12 41° WNW 04:01:34 20° SW visible
